Wind_Speed
24 23 25 30 29 24 27 31 19 29 30 21 15 17 18 19 24 30 33 31 26 25 25 25 25 25 26 26 27 27 26 26 26 26 26 26 26 26 26 27 28 28 27 27
33 18 14 19 21 22 26 32 37 33 30 15 16 19 22 22 31 34 32 28 27 27 27 27 26 25 25 26 26 26 26 27 28 28 28 28 28 27 26 27 28 28 28 28
11 13 23 22 5 8 17 14 16 27 18 16 17 19 24 30 33 32 35 35 34 35 32 30 27 26 25 26 27 27 27 28 28 28 29 29 30 30 29 29 29 29 28 29
16 15 5 7 14 20 7 13 17 20 15 15 22 28 33 34 38 38 38 38 37 37 35 33 29 27 28 28 26 28 28 30 30 29 29 29 30 30 30 30 30 31 32 31
7 9 20 20 8 6 14 17 17 13 15 21 35 37 37 30 35 37 38 37 36 36 34 30 29 28 27 28 29 28 29 30 31 31 30 32 31 30 29 29 30 31 31 31
6 6 5 8 11 17 18 17 10 11 19 38 41 38 35 33 34 33 35 35 32 30 30 29 28 28 26 25 26 28 31 29 29 30 32 32 31 31 31 30 31 31 32 32
17 12 18 21 23 16 5 8 15 27 40 46 41 37 40 42 37 36 33 31 31 30 29 28 28 27 26 27 28 29 29 32 33 31 30 30 30 29 31 32 31 31 30 31
11 10 14 7 8 11 15 27 38 41 39 39 40 40 42 38 36 33 29 27 27 28 28 27 26 26 26 27 30 29 25 27 27 28 26 24 27 29 28 27 27 27 27 28
18 18 21 21 31 38 46 43 42 39 40 44 39 39 40 38 30 27 27 27 27 27 26 26 26 28 27 27 28 27 26 26 26 24 24 25 24 23 23 23 25 27 31 29
30 38 27 27 32 39 40 42 36 41 42 38 41 39 34 26 23 23 24 26 26 26 26 26 26 25 28 28 28 28 26 25 27 27 28 28 27 27 28 30 34 38 39 37
37 43 38 25 27 28 35 37 40 37 39 41 38 26 23 21 21 23 25 27 30 30 30 31 33 32 27 28 27 26 27 28 30 30 27 25 25 25 27 27 29 35 34 34
48 33 32 31 31 34 39 37 36 38 38 33 26 24 24 22 23 25 24 21 22 24 29 28 28 30 32 32 34 32 32 32 32 33 33 32 32 32 31 32 33 32 33 34
40 35 33 35 37 34 36 30 36 38 31 26 24 27 27 28 26 21 23 27 29 34 36 38 38 39 41 38 42 42 41 39 39 40 39 39 41 42 41 39 38 37 36 36
38 33 35 36 35 31 32 33 31 29 27 28 28 28 30 27 24 26 30 36 40 44 45 45 45 44 48 50 51 48 46 48 47 47 50 50 46 46 47 46 43 38 36 36
30 29 32 33 31 33 34 31 25 25 27 28 30 32 31 27 28 31 34 41 47 48 47 47 47 48 48 48 50 51 49 48 48 52 52 50 48 47 45 44 42 40 38 37
33 32 35 34 34 30 28 27 27 30 32 33 32 36 37 38 36 43 43 49 53 51 50 48 47 48 49 49 49 48 47 46 47 47 45 45 43 42 41 40 40 39 38 35
30 32 30 31 33 34 32 29 31 34 35 33 36 37 39 44 49 54 51 54 53 50 48 48 49 49 49 45 43 44 45 45 46 46 42 37 38 39 38 39 39 37 36 36
31 31 32 33 34 36 36 34 35 34 36 39 42 46 50 50 53 54 57 55 53 52 48 49 52 51 46 44 45 45 44 43 44 44 42 41 38 36 37 38 38 37 38 38
31 32 34 36 36 37 38 33 32 36 38 44 47 49 52 53 55 57 54 53 50 51 49 48 49 49 46 43 44 44 43 42 42 43 42 41 38 40 40 40 38 34 36 39
28 31 30 27 26 26 30 34 40 42 43 47 49 52 52 51 48 47 46 49 48 49 49 48 48 48 47 47 46 45 44 43 43 42 41 41 41 40 40 38 37 39 38 38
30 27 35 37 37 38 42 44 46 49 52 48 50 52 47 46 48 46 47 48 46 42 45 45 45 46 48 49 48 47 44 42 42 42 43 42 41 42 41 39 41 36 40 41
48 53 53 53 50 51 51 52 52 54 54 55 55 50 47 46 46 46 46 46 42 40 43 45 47 48 49 48 49 49 46 44 43 42 42 41 41 42 40 39 39 37 33 31
55 59 60 55 54 56 54 51 50 50 50 51 50 47 44 46 46 44 45 44 41 43 45 47 48 48 47 47 50 49 47 45 45 44 41 39 37 36 37 36 38 35 35 36
46 47 49 53 54 54 56 54 48 48 49 48 47 47 49 49 45 43 41 44 44 45 47 48 49 47 44 48 49 45 44 45 45 44 42 39 36 34 33 32 30 27 26 27
52 53 54 54 54 54 55 54 53 51 50 48 47 44 42 39 40 40 40 40 43 46 49 47 43 41 44 48 47 43 43 44 42 39 36 35 33 32 31 30 28 26 26 28
51 51 50 48 49 48 46 45 45 44 45 43 39 39 39 39 38 38 39 42 46 45 43 42 42 44 45 48 44 42 41 38 35 33 32 32 31 29 26 24 24 25 27 26
50 50 49 49 48 45 44 41 40 37 37 39 40 37 35 34 36 40 41 42 44 43 42 43 45 45 46 45 41 37 32 29 27 26 23 21 19 19 20 21 21 21 21 18
Wind_Direction
282 286 279 272 265 253 247 256 252 270 282 310 311 304 287 291 317 322 329 331 328 330 325 313 311 311 308 306 308 305 302 301 300 298 296 293 293 294 294 295 298 299 301 304
298 302 289 287 278 261 258 256 261 277 284 315 293 296 289 297 313 323 327 327 327 322 322 322 318 310 306 306 307 308 303 300 298 298 297 296 294 291 291 294 296 299 301 302
280 297 306 292 283 274 287 288 283 259 301 293 289 291 301 309 315 320 322 323 321 321 318 315 313 310 306 303 304 303 302 302 302 298 298 299 298 297 296 296 295 295 295 297
284 314 245 263 283 298 263 305 293 290 268 273 304 308 314 322 324 322 323 322 319 316 312 312 310 306 303 304 304 302 301 297 297 300 299 295 294 295 295 296 296 297 298 297
272 282 287 292 271 229 308 303 301 273 274 312 315 305 315 311 311 312 314 316 316 316 313 310 309 308 308 305 302 303 303 301 301 301 299 296 293 292 292 294 295 296 295 294
264 276 270 272 268 288 308 297 291 275 285 302 306 304 302 308 311 310 310 314 316 317 316 312 307 307 307 310 312 303 300 303 303 302 301 298 294 294 295 296 296 297 297 297
246 262 277 283 280 281 283 286 289 295 300 303 303 298 304 310 309 310 314 316 320 325 324 317 309 302 302 307 306 306 300 299 297 298 302 300 298 297 297 298 299 299 300 299
225 230 264 295 265 268 277 290 290 290 293 301 303 301 306 309 311 312 315 317 321 326 326 322 317 312 308 306 307 312 313 312 301 289 292 297 298 301 302 301 302 302 302 301
233 267 284 283 284 287 293 292 293 295 292 299 300 304 306 307 309 313 317 320 323 324 324 322 321 316 312 306 305 307 307 306 310 300 292 288 287 286 286 287 287 288 289 292
259 287 284 282 281 287 290 282 286 294 295 298 300 302 302 302 306 310 312 312 313 314 315 314 312 313 312 308 306 307 306 304 304 310 294 289 287 287 287 290 293 296 298 301
270 291 301 284 290 289 283 285 291 293 298 301 303 299 296 297 300 304 307 307 309 310 311 312 312 307 307 311 310 307 305 305 303 297 291 289 290 295 296 296 294 295 295 300
278 298 284 280 285 276 280 288 290 296 297 298 292 290 290 293 297 306 316 320 327 329 329 326 324 305 293 297 305 306 300 299 299 298 295 293 290 286 281 285 285 286 290 294
291 295 281 275 283 279 279 284 289 295 295 293 290 293 295 299 306 306 303 304 312 316 316 316 314 313 310 308 300 297 291 290 289 290 288 289 288 287 285 283 281 280 285 290
283 274 276 284 284 278 282 286 285 283 286 293 296 289 290 302 308 307 309 310 308 307 307 305 305 307 304 299 295 294 291 285 285 285 287 286 286 286 285 285 285 283 282 288
287 283 280 279 280 284 287 283 279 277 279 285 288 287 287 289 298 307 309 314 315 312 311 305 302 298 305 302 298 295 292 289 287 284 283 284 284 283 284 285 284 283 280 284
281 281 283 286 287 286 281 273 287 287 288 287 294 296 300 296 295 305 307 315 318 316 313 306 307 304 304 305 301 299 297 295 292 289 288 287 287 285 283 282 281 279 278 278
276 274 277 284 288 286 280 276 282 287 285 287 294 295 298 305 309 309 309 312 314 315 317 316 313 310 308 306 302 300 298 295 292 289 290 286 285 285 285 284 282 279 276 275
269 267 266 272 277 276 273 270 276 283 290 296 302 303 306 310 314 313 312 314 312 311 315 311 309 307 307 306 304 301 299 295 292 290 292 292 284 282 282 282 282 281 280 279
265 267 267 266 266 267 269 271 279 284 298 303 305 309 310 311 312 313 312 311 313 312 314 310 308 306 306 304 303 301 300 296 291 288 289 288 290 287 281 277 280 280 278 280
270 256 256 271 278 300 303 306 304 302 304 306 307 308 310 313 312 312 313 313 314 312 310 311 309 308 305 303 304 302 302 299 296 291 287 287 286 286 284 283 276 278 276 278
252 290 303 308 309 310 310 308 305 302 304 308 308 307 307 308 308 308 309 310 313 312 308 308 306 303 303 306 304 303 301 299 296 292 288 287 284 283 282 282 282 275 273 272
288 308 305 305 305 303 300 297 297 299 299 297 296 296 299 302 303 304 307 317 321 315 306 306 306 308 308 307 304 302 300 299 299 294 290 286 284 284 283 282 280 274 276 282
299 298 298 299 300 301 299 297 298 298 295 294 294 295 300 301 301 303 310 316 313 309 308 307 307 308 309 308 306 302 299 298 299 299 294 290 287 285 281 278 277 277 269 274
290 289 290 292 295 296 297 299 299 298 300 300 299 295 295 299 299 302 307 309 308 307 306 306 306 308 307 308 308 303 300 298 297 295 290 286 284 283 282 277 278 271 265 266
296 301 301 302 301 301 302 301 297 295 297 298 298 300 301 300 298 304 300 302 304 304 304 304 306 307 309 312 310 304 302 301 298 294 291 286 283 282 279 277 267 261 259 260
297 299 300 300 300 301 305 305 298 295 295 299 303 304 299 294 292 296 302 305 306 306 306 309 310 310 312 313 310 308 305 301 297 295 292 290 287 280 275 272 264 251 255 252
301 300 301 300 300 301 301 301 297 297 299 299 298 298 296 297 299 300 300 302 309 304 304 308 307 307 310 312 310 309 309 308 304 299 302 306 292 276 269 268 262 255 245 245
Height
3117 3116 3114 3110 3109 3110 3106 3104 3102 3091 3088 3089 3088 3084 3081 3079 3076 3073 3069 3064 3060 3057 3053 3050 3047 3044 3041 3038 3034 3031 3028 3025 3022 3020 3018 3015 3013 3012 3009 3007 3005 3003 2999 2996
3108 3107 3105 3101 3099 3098 3098 3096 3090 3088 3082 3085 3083 3080 3077 3075 3072 3068 3064 3060 3056 3052 3047 3044 3041 3038 3035 3032 3029 3026 3023 3020 3018 3015 3012 3010 3008 3005 3003 3000 2998 2996 2993 2990
3106 3104 3101 3094 3089 3090 3090 3087 3086 3084 3083 3080 3077 3076 3074 3071 3068 3063 3058 3053 3050 3046 3042 3038 3034 3031 3028 3025 3023 3020 3017 3014 3011 3009 3007 3004 3002 3000 2997 2995 2992 2989 2986 2983
3105 3101 3097 3088 3086 3085 3084 3083 3081 3078 3076 3075 3073 3071 3068 3064 3059 3055 3051 3046 3042 3038 3034 3030 3028 3024 3021 3019 3016 3013 3010 3007 3004 3002 2999 2996 2994 2992 2990 2987 2985 2983 2980 2977
3107 3102 3090 3082 3079 3081 3079 3077 3075 3074 3073 3071 3068 3064 3064 3060 3057 3050 3045 3040 3035 3029 3025 3022 3019 3017 3014 3011 3008 3005 3002 2999 2997 2995 2992 2988 2986 2983 2981 2979 2977 2975 2971 2968
3107 3103 3091 3080 3078 3077 3076 3072 3070 3070 3069 3065 3062 3056 3056 3052 3048 3044 3038 3032 3028 3024 3019 3015 3013 3009 3007 3004 3001 2998 2994 2992 2989 2986 2983 2981 2978 2976 2974 2971 2969 2966 2964 2961
3103 3100 3085 3079 3074 3075 3076 3074 3068 3065 3061 3057 3053 3050 3045 3043 3040 3035 3030 3026 3021 3017 3012 3008 3006 3003 3001 2998 2994 2991 2988 2985 2981 2978 2976 2973 2970 2968 2966 2963 2961 2958 2955 2953
3094 3092 3082 3075 3074 3075 3071 3068 3063 3058 3054 3049 3046 3042 3038 3035 3031 3027 3024 3020 3016 3012 3008 3003 2999 2997 2995 2992 2988 2984 2980 2976 2972 2968 2966 2965 2963 2961 2959 2956 2954 2951 2948 2945
3084 3078 3075 3072 3070 3065 3062 3057 3053 3050 3047 3042 3038 3034 3030 3027 3024 3021 3018 3014 3011 3008 3005 3000 2996 2992 2988 2985 2981 2977 2974 2971 2967 2962 2959 2956 2954 2952 2950 2947 2945 2942 2939 2937
3072 3065 3066 3066 3062 3057 3054 3047 3046 3041 3037 3034 3029 3026 3022 3020 3018 3016 3013 3010 3007 3004 3000 2997 2992 2988 2983 2979 2975 2972 2968 2964 2960 2957 2954 2951 2949 2946 2943 2941 2938 2936 2933 2929
3057 3055 3056 3054 3050 3047 3042 3040 3037 3033 3028 3024 3020 3018 3015 3014 3012 3010 3008 3005 3001 2997 2995 2992 2988 2984 2978 2973 2969 2966 2962 2958 2954 2950 2946 2943 2940 2938 2935 2933 2930 2927 2924 2920
3043 3050 3047 3044 3043 3037 3032 3030 3026 3023 3021 3015 3012 3010 3009 3008 3006 3004 3001 2999 2996 2993 2988 2984 2980 2976 2973 2967 2962 2958 2955 2952 2947 2943 2940 2936 2932 2928 2927 2924 2921 2918 2916 2913
3035 3037 3035 3032 3029 3027 3022 3020 3018 3014 3010 3010 3008 3004 3002 3000 3000 2997 2994 2990 2986 2983 2980 2975 2972 2968 2964 2959 2955 2950 2946 2943 2938 2933 2929 2926 2923 2920 2916 2913 2911 2909 2907 2904
3028 3027 3022 3020 3016 3016 3013 3012 3008 3006 3004 3002 3000 2999 2995 2992 2992 2990 2987 2983 2978 2974 2970 2966 2962 2958 2951 2947 2942 2937 2933 2929 2926 2922 2916 2913 2910 2908 2905 2903 2900 2899 2898 2895
3019 3016 3012 3010 3009 3006 3003 2999 2999 2999 2997 2996 2993 2990 2988 2985 2983 2982 2979 2975 2969 2965 2960 2955 2950 2946 2939 2933 2928 2922 2918 2914 2911 2905 2903 2899 2897 2894 2892 2890 2889 2887 2885 2885
3008 3006 3004 3001 2999 2997 2995 2993 2992 2991 2989 2988 2987 2985 2981 2978 2974 2972 2968 2963 2956 2950 2946 2940 2935 2931 2925 2919 2914 2908 2904 2900 2897 2892 2887 2885 2882 2881 2879 2877 2875 2875 2874 2873
2997 2996 2995 2993 2991 2989 2987 2986 2984 2983 2981 2980 2977 2974 2971 2968 2964 2961 2956 2951 2945 2939 2934 2926 2920 2915 2910 2904 2899 2893 2890 2887 2883 2879 2874 2872 2870 2869 2867 2865 2864 2863 2863 2861
2990 2987 2986 2985 2983 2981 2979 2978 2975 2973 2970 2969 2966 2963 2960 2956 2951 2946 2941 2936 2932 2925 2923 2913 2909 2902 2898 2893 2886 2880 2876 2873 2869 2865 2862 2858 2856 2856 2854 2854 2853 2852 2852 2851
2982 2981 2979 2976 2973 2971 2969 2967 2965 2963 2961 2959 2954 2950 2947 2942 2937 2932 2927 2922 2919 2909 2908 2900 2895 2890 2885 2881 2875 2868 2864 2860 2856 2853 2849 2847 2844 2843 2842 2842 2841 2840 2840 2839
2976 2972 2970 2967 2965 2961 2958 2957 2954 2952 2951 2946 2942 2937 2932 2929 2924 2919 2915 2909 2907 2898 2892 2888 2882 2877 2871 2866 2861 2856 2851 2846 2842 2839 2836 2834 2832 2831 2829 2828 2828 2827 2827 2828
2965 2962 2960 2958 2954 2952 2950 2947 2942 2940 2937 2934 2929 2926 2921 2917 2914 2909 2904 2897 2897 2891 2883 2877 2872 2866 2859 2854 2848 2843 2839 2835 2831 2827 2824 2821 2820 2818 2817 2816 2815 2815 2814 2814
2956 2953 2950 2947 2944 2940 2940 2936 2933 2927 2923 2920 2917 2913 2908 2904 2901 2897 2893 2887 2882 2878 2872 2866 2861 2855 2848 2842 2835 2830 2826 2823 2819 2815 2812 2809 2807 2805 2804 2803 2802 2803 2802 2802
2947 2942 2937 2934 2929 2924 2921 2919 2915 2911 2908 2905 2901 2899 2895 2890 2887 2881 2877 2877 2870 2865 2860 2854 2848 2843 2837 2831 2824 2818 2813 2810 2806 2802 2799 2796 2794 2792 2791 2790 2789 2789 2790 2792
2933 2930 2925 2922 2918 2913 2907 2905 2902 2898 2894 2891 2888 2885 2881 2876 2873 2872 2866 2861 2858 2853 2848 2842 2836 2831 2826 2819 2812 2806 2801 2797 2793 2789 2786 2783 2781 2779 2778 2778 2778 2778 2780 2781
2918 2915 2911 2907 2904 2899 2895 2891 2886 2883 2881 2877 2874 2872 2869 2865 2860 2858 2855 2851 2846 2841 2834 2829 2825 2820 2814 2807 2800 2794 2789 2784 2780 2776 2773 2770 2769 2767 2767 2766 2767 2769 2771 2772
2907 2903 2899 2895 2890 2886 2882 2876 2871 2869 2867 2863 2861 2859 2855 2852 2848 2845 2843 2838 2833 2828 2822 2817 2813 2808 2802 2795 2789 2783 2778 2772 2768 2765 2762 2759 2757 2756 2756 2757 2758 2760 2762 2764
2894 2890 2885 2880 2877 2873 2868 2863 2858 2856 2855 2851 2848 2847 2843 2842 2839 2835 2831 2826 2821 2816 2812 2807 2802 2796 2791 2784 2779 2774 2769 2764 2760 2756 2753 2750 2747 2747 2748 2750 2751 2753 2756 2758